{"data":{"norad_id":67246,"epoch":"2026-05-25T04:22:36.120864Z","epoch_age_seconds":49354,"freshness":"FRESH","line1":"1 67246U 25312A   26145.18236251 -.00000325  00000+0  00000+0 0  9993","line2":"2 67246   0.0193  94.5537 0000467  51.2065 295.6612  1.00271254  1542","mean_motion":1.00271254,"eccentricity":4.67e-5,"inclination_deg":0.0193,"raan_deg":94.5537,"arg_perigee_deg":51.2065,"mean_anomaly_deg":295.6612,"bstar":0,"rev_number":154,"period_min":1436.104509075,"perigee_km":35784.774720489,"apogee_km":35788.712920358,"semimajor_km":42164.880820423,"source":"CELESTRAK","updated_at":"2026-05-25T13:38:14.189085Z"}}